Fort Hood, TX

2:12 PM CST on November 15, 2019 (GMT -0600)
Killeen-Fort Hood Regional

Weather History for KGRK - October, 2019

Change the Weather History Date:

Monday, October 14, 2019

  Actual Average Record
Temperature  
Mean Temperature 73 °F -  
Max Temperature 82 °F 76 °F 94 °F (2015)
Min Temperature 64 °F 56 °F 48 °F (1997)
Cooling Degree Days 8    
Growing Degree Days 23 (Base 50)    
Moisture  
Dew Point 63 °F    
Average Humidity 74    
Maximum Humidity 94    
Minimum Humidity 61    
Precipitation  
Precipitation 0.00 in - - ()
Sea Level Pressure  
Sea Level Pressure 29.94 in    
Wind  
Wind Speed 5 mph (SSE)    
Max Wind Speed 10 mph    
Max Gust Speed -    
Visibility 10 miles    
Events Rain    
Averages and records for this station are not official NWS values.
T = Trace of Precipitation, MM = Missing Value Source: NWS Daily Summary

Daily Weather History Graph

Daily Weather History Graph

Search for Another Location

Airport or City:

Astronomy

Oct. 14, 2019 Rise Set
Actual Time 7:33 AM CDT 7:00 PM CDT
Civil Twilight 7:08 AM CDT 7:25 PM CDT
Nautical Twilight 6:40 AM CDT 7:53 PM CDT
Astronomical Twilight 6:12 AM CDT 8:21 PM CDT
Moon 7:52 PM CDT (10/14) 8:07 AM CDT (10/14)
Length of Visible Light 12h 16m
Length of Day
11h 27m
Full, 99% of the Moon is Illuminated
Oct 14
Full
Oct 21
Last Quarter
Oct 27
New
Nov 4
First Quarter
Nov 12
Full

Hourly Weather History & Observations

Time (CDT) Temp. Heat Index Dew Point Humidity Pressure Visibility Wind Dir Wind Speed Gust Speed Precip Events Conditions
12:03 AM 66.2 °F - 55.4 °F 68% 29.99 in 10.0 mi SSE 4.6 mph - N/A   Overcast
12:58 AM 66.2 °F - 55.4 °F 68% 29.97 in 10.0 mi South 4.6 mph - N/A   Overcast
1:58 AM 70.0 °F - 55.8 °F 61% 29.97 in 10.0 mi SSE 4.6 mph - N/A   Overcast
2:58 AM 67.5 °F - 57.7 °F 71% 29.96 in 10.0 mi SE 8.1 mph - N/A   Overcast
3:28 AM 68.0 °F - 57.2 °F 68% 29.95 in 10.0 mi SSE 5.8 mph - N/A   Overcast
3:48 AM 68.0 °F - 57.2 °F 68% 29.96 in 10.0 mi SSE 5.8 mph - N/A   Overcast
3:58 AM 67.3 °F - 57.7 °F 71% 29.96 in 10.0 mi SE 5.8 mph - N/A   Overcast
4:58 AM 66.9 °F - 57.9 °F 73% 29.96 in 10.0 mi SSE 5.8 mph - N/A   Overcast
5:29 AM 66.2 °F - 59.0 °F 78% 29.96 in 10.0 mi SSE 5.8 mph - N/A Rain Light Rain
5:43 AM 66.2 °F - 59.0 °F 78% 29.95 in 10.0 mi SSE 5.8 mph - N/A   Overcast
5:54 AM 66.2 °F - 59.0 °F 78% 29.95 in 10.0 mi SSE 6.9 mph - N/A Rain Light Rain
5:58 AM 66.2 °F - 59.5 °F 79% 29.95 in 9.0 mi SSE 6.9 mph - 0.00 in Rain Light Rain
6:06 AM 66.2 °F - 59.0 °F 78% 29.95 in 10.0 mi SSE 5.8 mph - N/A   Overcast
6:08 AM 66.2 °F - 59.0 °F 78% 29.95 in 10.0 mi SSE 5.8 mph - N/A Rain Light Rain
6:19 AM 64.4 °F - 60.8 °F 88% 29.95 in 10.0 mi SSE 5.8 mph - N/A   Overcast
6:43 AM 66.2 °F - 59.0 °F 78% 29.96 in 10.0 mi South 3.5 mph - N/A Rain Light Rain
6:58 AM 65.8 °F - 59.9 °F 81% 29.96 in 9.0 mi South 3.5 mph - 0.00 in Rain Light Rain
7:04 AM 66.2 °F - 59.0 °F 78% 29.96 in 10.0 mi SSE 3.5 mph - N/A   Overcast
7:12 AM 64.4 °F - 60.8 °F 88% 29.96 in 10.0 mi Calm Calm - N/A Rain Light Rain
7:15 AM 64.4 °F - 60.8 °F 88% 29.96 in 10.0 mi Calm Calm - N/A   Overcast
7:17 AM 66.2 °F - 60.8 °F 83% 29.96 in 10.0 mi Calm Calm - N/A Rain Light Rain
7:22 AM 66.2 °F - 60.8 °F 83% 29.96 in 10.0 mi Calm Calm - N/A   Overcast
8:58 AM 67.1 °F - 61.7 °F 83% 29.98 in 10.0 mi SSE 4.6 mph - N/A   Overcast
9:18 AM 68.0 °F - 60.8 °F 78% 29.99 in 10.0 mi SSE 4.6 mph - N/A   Overcast
9:38 AM 68.0 °F - 60.8 °F 78% 30.00 in 10.0 mi South 4.6 mph - N/A   Overcast
9:58 AM 68.7 °F - 62.2 °F 80% 30.00 in 10.0 mi SSE 5.8 mph - N/A   Overcast
10:43 AM 71.6 °F - 62.6 °F 73% 29.99 in 10.0 mi SSE 6.9 mph - N/A   Overcast
10:48 AM 73.4 °F - 62.6 °F 69% 29.99 in 10.0 mi SSE 6.9 mph - N/A   Overcast
10:58 AM 72.9 °F - 63.3 °F 72% 29.99 in 10.0 mi SSE 6.9 mph - N/A   Mostly Cloudy
11:58 AM 78.1 °F - 66.2 °F 67% 29.98 in 10.0 mi South 9.2 mph - N/A   Mostly Cloudy
12:58 PM 82.4 °F 85.4 °F 68.0 °F 62% 29.95 in 10.0 mi South 5.8 mph - N/A   Mostly Cloudy
1:43 PM 82.4 °F 85.4 °F 68.0 °F 62% 29.92 in 10.0 mi South 10.4 mph - N/A   Overcast
1:48 PM 82.4 °F 85.4 °F 68.0 °F 62% 29.92 in 10.0 mi SSW 4.6 mph - N/A   Overcast
2:28 PM 80.6 °F 83.2 °F 68.0 °F 65% 29.91 in 10.0 mi SSW 6.9 mph - N/A   Overcast
2:58 PM 81.1 °F 83.9 °F 67.8 °F 64% 29.90 in 10.0 mi SSW 5.8 mph - N/A   Mostly Cloudy
3:33 PM 80.6 °F 83.2 °F 68.0 °F 65% 29.88 in 10.0 mi Calm Calm - N/A   Mostly Cloudy
3:38 PM 80.6 °F 83.2 °F 68.0 °F 65% 29.88 in 9.0 mi Calm Calm - N/A   Overcast
3:48 PM 80.6 °F 83.2 °F 68.0 °F 65% 29.88 in 10.0 mi SE 4.6 mph - N/A   Mostly Cloudy
3:58 PM 81.9 °F 84.8 °F 68.4 °F 63% 29.88 in 10.0 mi SSE 6.9 mph - N/A   Overcast
4:58 PM 81.9 °F 84.6 °F 67.5 °F 62% 29.88 in 10.0 mi SE 8.1 mph - N/A   Mostly Cloudy
5:03 PM 82.4 °F 85.4 °F 68.0 °F 62% 29.88 in 10.0 mi ESE 9.2 mph - N/A   Mostly Cloudy
5:23 PM 82.4 °F 85.4 °F 68.0 °F 62% 29.88 in 9.0 mi ESE 9.2 mph - N/A   Scattered Clouds
5:58 PM 80.8 °F 83.5 °F 68.2 °F 65% 29.88 in 10.0 mi ESE 8.1 mph - N/A   Mostly Cloudy
6:58 PM 78.8 °F - 69.1 °F 72% 29.89 in 10.0 mi ESE 6.9 mph - N/A   Overcast
7:58 PM 77.5 °F - 68.7 °F 74% 29.89 in 9.0 mi SE 5.8 mph - N/A   Overcast
8:58 PM 77.2 °F - 68.7 °F 75% 29.91 in 10.0 mi ESE 8.1 mph - N/A   Overcast
9:58 PM 76.1 °F - 69.1 °F 79% 29.91 in 10.0 mi ESE 10.4 mph - N/A   Overcast
10:58 PM 74.7 °F - 70.5 °F 87% 29.91 in 10.0 mi ESE 9.2 mph - N/A   Scattered Clouds
11:38 PM 75.2 °F - 71.6 °F 89% 29.90 in 9.0 mi ESE 10.4 mph - N/A   Overcast
11:43 PM 73.4 °F - 71.6 °F 94% 29.90 in 10.0 mi ESE 8.1 mph - N/A   Mostly Cloudy
11:58 PM 73.9 °F - 70.9 °F 90% 29.90 in 9.0 mi ESE 6.9 mph - N/A   Mostly Cloudy